Location: Freistadt
(48.5112°N, 14.5013°E)
Time: 13:13:31
(UTC+01:00)

COSMOS 2251 DEB - Pass Details

Date: 14 December 2023
Orbit: 611 x 652 km, 74.0° (Epoch: 27 February)

Event Time Altitude Azimuth Distance (km) Brightness Sun altitude
Exits shadow 03:17:04 - 33° (NNE) 2,851 ? -43.2°
Enters shadow 04:24:06 -57° 297° (WNW) 11,450 ? -32.2°
Maximum altitude 04:57:32 13° 45° (NE) 1,810 ? -26.7°
